N5TM-4 Weather Reports


Display with metric or nautical units.
time (UTC)temp
F
wind
direction
speed
MPH
gust
MPH
rain 1hr
in
rain 24hr
in
rain mn
in
humidity
%
barometer
mb
20260505082519 69 184 0.0 3.0 0.00 0.00 0.00 88 1009.4
20260505082019 69 184 1.0 3.0 0.00 0.00 0.00 88 1009.3
20260505081529 69 184 0.0 5.0 0.00 0.00 0.00 88 1009.4
20260505081019 69 184 2.0 5.0 0.00 0.00 0.00 88 1009.4
20260505080521 69 163 1.0 5.0 0.00 0.00 0.00 88 1009.4
20260505080021 69 163 2.0 5.0 0.00 0.00 0.00 88 1009.4
20260505075517 69 163 1.0 5.0 0.00 0.00 0.00 87 1009.6
20260505075019 69 163 1.0 5.0 0.00 0.00 0.00 87 1009.6
20260505074516 69 163 2.0 6.0 0.00 0.00 0.00 87 1009.6
20260505074016 69 163 2.0 7.0 0.00 0.00 0.00 87 1009.6
20260505073515 69 148 1.0 7.0 0.00 0.00 0.00 87 1009.6
20260505073014 69 159 2.0 6.0 0.00 0.00 0.00 87 1009.6
20260505072515 69 198 2.0 7.0 0.00 0.00 0.00 87 1009.7
20260505072014 69 188 1.0 7.0 0.00 0.00 0.00 86 1009.6
20260505071526 69 181 3.0 8.0 0.00 0.00 0.00 86 1009.6
20260505071013 69 155 3.0 8.0 0.00 0.00 0.00 86 1009.7
20260505070512 69 148 2.0 6.0 0.00 0.00 0.00 86 1009.8
20260505070012 69 184 2.0 8.0 0.00 0.00 0.00 86 1009.9
20260505065510 69 161 3.0 9.0 0.00 0.00 0.00 86 1010.0
20260505065009 69 171 3.0 9.0 0.00 0.00 0.00 85 1010.1
20260505064519 69 167 2.0 8.0 0.00 0.00 0.00 85 1010.0
20260505064008 69 158 3.0 8.0 0.00 0.00 0.00 85 1010.1
20260505063507 69 184 3.0 8.0 0.00 0.00 0.00 85 1010.2
20260505063013 69 157 3.0 8.0 0.00 0.00 0.00 85 1010.4
20260505062506 70 192 2.0 7.0 0.00 0.00 0.00 84 1010.4
20260505062006 70 153 2.0 7.0 0.00 0.00 0.00 84 1010.4
20260505061509 70 175 4.0 9.0 0.00 0.00 0.00 84 1010.4
20260505061008 70 160 4.0 9.0 0.00 0.00 0.00 84 1010.7
20260505060508 70 176 3.0 8.0 0.00 0.00 0.00 84 1010.7
20260505060005 70 169 4.0 7.0 0.00 0.00 0.00 84 1010.6
20260505055504 70 175 3.0 7.0 0.00 0.00 0.00 84 1010.5
20260505055004 70 136 3.0 8.0 0.00 0.00 0.00 84 1010.5
20260505054504 70 168 3.0 8.0 0.00 0.00 0.00 83 1010.5
20260505054003 70 177 4.0 10.0 0.00 0.00 0.00 83 1010.4
20260505053501 70 151 4.0 9.0 0.00 0.00 0.00 83 1010.5
20260505053107 70 185 3.0 9.0 0.00 0.00 0.00 83 1010.8
20260505052559 70 171 3.0 8.0 0.00 0.00 0.00 83 1011.0
20260505052103 70 172 4.0 8.0 0.00 0.00 0.00 83 1011.0
20260505051559 70 184 2.0 9.0 0.00 0.00 0.00 83 1011.0
20260505051059 70 165 1.0 6.0 0.00 0.00 0.00 82 1011.0
20260505050557 70 150 1.0 6.0 0.00 0.00 0.00 82 1011.0
20260505041556 71 163 3.0 6.0 0.00 0.00 0.00 80 1011.0
20260505041055 71 161 2.0 6.0 0.00 0.00 0.00 80 1011.0
20260505040557 71 154 3.0 10.0 0.00 0.00 0.00 80 1011.1
20260505040055 71 183 1.0 10.0 0.00 0.00 0.00 80 1011.2
20260505035554 71 176 4.0 10.0 0.00 0.00 0.00 79 1011.2
20260505035054 71 174 3.0 9.0 0.00 0.00 0.00 79 1011.1
20260505034555 71 155 4.0 9.0 0.00 0.00 0.00 79 1011.2
20260505034054 71 150 2.0 9.0 0.00 0.00 0.00 79 1011.4
20260505033554 71 133 2.0 8.0 0.00 0.00 0.00 78 1011.3
20260505033054 71 187 3.0 9.0 0.00 0.00 0.00 78 1011.3
20260505032554 71 161 5.0 8.0 0.00 0.00 0.00 78 1011.4
20260505032053 71 138 3.0 9.0 0.00 0.00 0.00 78 1011.5
20260505031555 72 163 2.0 9.0 0.00 0.00 0.00 78 1011.4
20260505031053 72 163 6.0 9.0 0.00 0.00 0.00 78 1011.2
20260505030553 72 186 4.0 10.0 0.00 0.00 0.00 77 1011.2
20260505030053 72 162 5.0 10.0 0.00 0.00 0.00 77 1011.3
20260505025553 72 205 5.0 8.0 0.00 0.00 0.00 77 1011.3
20260505025054 72 171 3.0 9.0 0.00 0.00 0.00 76 1011.3
20260505024553 72 157 5.0 11.0 0.00 0.00 0.00 76 1011.3
20260505024052 73 142 6.0 11.0 0.00 0.00 0.00 76 1011.4
20260505023551 73 141 5.0 11.0 0.00 0.00 0.00 76 1011.3
20260505023057 73 162 6.0 11.0 0.00 0.00 0.00 76 1011.3
20260505022553 73 177 3.0 10.0 0.00 0.00 0.00 75 1011.2
20260505022050 73 150 4.0 14.0 0.00 0.00 0.00 75 1011.1
20260505021552 73 147 7.0 14.0 0.00 0.00 0.00 74 1010.9
20260505021050 73 155 3.0 11.0 0.00 0.00 0.00 74 1011.1
20260505020550 73 142 4.0 11.0 0.00 0.00 0.00 74 1011.0
20260505020055 73 142 5.0 11.0 0.00 0.00 0.00 74 1010.9
20260505015550 73 181 6.0 12.0 0.00 0.00 0.00 73 1010.9
20260505015052 74 163 6.0 12.0 0.00 0.00 0.00 73 1011.0
20260505014550 74 156 6.0 12.0 0.00 0.00 0.00 73 1010.9
20260505014049 74 190 5.0 17.0 0.00 0.00 0.00 73 1010.9
20260505013549 74 174 9.0 18.0 0.00 0.00 0.00 73 1010.8
20260505013050 74 103 6.0 15.0 0.00 0.00 0.00 73 1010.7
20260505012549 74 167 9.0 17.0 0.00 0.00 0.00 72 1010.6
20260505012053 74 187 6.0 12.0 0.00 0.00 0.00 72 1010.7
20260505011553 74 157 3.0 13.0 0.00 0.00 0.00 72 1010.7
20260505011052 74 157 6.0 13.0 0.00 0.00 0.00 72 1010.5
20260505010548 74 160 4.0 12.0 0.00 0.00 0.00 72 1010.7
20260505010050 74 169 4.0 14.0 0.00 0.00 0.00 72 1010.7
20260505005548 74 187 7.0 14.0 0.00 0.00 0.00 71 1010.6
20260505005048 75 163 6.0 14.0 0.00 0.00 0.00 71 1010.6
20260505004548 75 175 4.0 10.0 0.00 0.00 0.00 71 1010.6
20260505004048 75 176 5.0 10.0 0.00 0.00 0.00 71 1010.6
20260505003547 75 190 5.0 10.0 0.00 0.00 0.00 71 1010.5
20260505003048 75 138 4.0 12.0 0.00 0.00 0.00 71 1010.5
20260505002548 75 169 4.0 12.0 0.00 0.00 0.00 71 1010.5
20260505002048 75 142 5.0 12.0 0.00 0.00 0.00 70 1010.4
20260505001547 75 123 5.0 13.0 0.00 0.00 0.00 69 1010.4
20260505001046 76 169 7.0 13.0 0.00 0.00 0.00 69 1010.4
20260505000546 76 157 6.0 15.0 0.00 0.00 0.00 69 1010.4
20260505000049 76 157 4.0 17.0 0.00 0.00 0.00 69 1010.5
20260504235546 76 134 7.0 17.0 0.00 0.00 0.00 68 1010.6
20260504235045 76 180 2.0 11.0 0.00 0.00 0.00 69 1010.5
20260504234546 76 174 5.0 11.0 0.00 0.00 0.00 68 1010.7
20260504234045 77 153 3.0 11.0 0.00 0.00 0.00 68 1010.7
20260504233543 77 174 3.0 15.0 0.00 0.00 0.00 68 1010.8
20260504233044 77 174 7.0 15.0 0.00 0.00 0.00 67 1010.9
20260504232543 77 178 4.0 14.0 0.00 0.00 0.00 67 1010.9
20260504232042 77 138 6.0 14.0 0.00 0.00 0.00 67 1011.0
20260504231543 77 131 4.0 10.0 0.00 0.00 0.00 67 1011.0
20260504231042 77 134 4.0 10.0 0.00 0.00 0.00 67 1010.9
20260504230544 77 169 6.0 12.0 0.00 0.00 0.00 66 1011.0
20260504230042 77 152 4.0 12.0 0.00 0.00 0.00 66 1011.1
20260504225540 78 146 7.0 13.0 0.00 0.00 0.00 66 1011.1
20260504225043 78 134 5.0 12.0 0.00 0.00 0.00 66 1011.2
20260504224542 78 133 6.0 14.0 0.00 0.00 0.00 65 1011.2
20260504224042 78 123 6.0 14.0 0.00 0.00 0.00 64 1011.2
20260504223541 78 144 2.0 12.0 0.00 0.00 0.00 64 1011.1
20260504223039 78 148 5.0 12.0 0.00 0.00 0.00 64 1011.3
20260504222538 79 140 5.0 13.0 0.00 0.00 0.00 63 1011.2
20260504222039 79 219 2.0 11.0 0.00 0.00 0.00 63 1011.4
20260504221538 78 168 6.0 11.0 0.00 0.00 0.00 63 1011.4
20260504221036 79 121 5.0 11.0 0.00 0.00 0.00 62 1011.5
20260504220535 79 163 3.0 9.0 0.00 0.00 0.00 62 1011.7
20260504220034 79 115 3.0 12.0 0.00 0.00 0.00 62 1011.7
20260504215535 79 148 6.0 12.0 0.00 0.00 0.00 61 1011.9
20260504215034 79 179 5.0 11.0 0.00 0.00 0.00 60 1011.8
20260504214542 79 161 4.0 11.0 0.00 0.00 0.00 60 1011.8
20260504214033 79 151 5.0 16.0 0.00 0.00 0.00 60 1011.8
20260504213533 79 167 5.0 16.0 0.00 0.00 0.00 59 1012.0
20260504213034 80 175 5.0 16.0 0.00 0.00 0.00 58 1011.9
20260504212532 81 177 4.0 10.0 0.00 0.00 0.00 57 1012.0
20260504212032 81 163 5.0 11.0 0.00 0.00 0.00 57 1011.9
20260504211531 80 148 6.0 14.0 0.00 0.00 0.00 57 1012.1
20260504211031 80 211 5.0 14.0 0.00 0.00 0.00 57 1012.0
20260504210530 81 221 7.0 12.0 0.00 0.00 0.00 56 1012.1
20260504210030 82 141 3.0 9.0 0.00 0.00 0.00 55 1012.2
20260504205529 82 170 5.0 10.0 0.00 0.00 0.00 54 1012.2
20260504205028 81 179 4.0 10.0 0.00 0.00 0.00 56 1012.4
20260504204529 82 185 4.0 9.0 0.00 0.00 0.00 55 1012.5
20260504204028 82 139 3.0 7.0 0.00 0.00 0.00 54 1012.5
20260504203528 82 155 1.0 9.0 0.00 0.00 0.00 54 1012.5
20260504203027 81 171 3.0 10.0 0.00 0.00 0.00 54 1012.4
20260504202527 81 188 4.0 11.0 0.00 0.00 0.00 55 1012.6
20260504202025 81 158 4.0 10.0 0.00 0.00 0.00 55 1012.7
20260504201524 81 186 5.0 12.0 0.00 0.00 0.00 54 1012.8
20260504201024 81 163 7.0 12.0 0.00 0.00 0.00 53 1012.9
20260504200523 82 125 4.0 8.0 0.00 0.00 0.00 54 1012.9
20260504200035 82 155 1.0 9.0 0.00 0.00 0.00 55 1013.1
20260504195522 82 152 5.0 11.0 0.00 0.00 0.00 52 1013.1
20260504195021 82 132 6.0 11.0 0.00 0.00 0.00 52 1013.2
20260504194522 82 182 4.0 10.0 0.00 0.00 0.00 51 1013.2
20260504194023 83 160 2.0 9.0 0.00 0.00 0.00 51 1013.2
20260504193519 83 182 4.0 9.0 0.00 0.00 0.00 51 1013.4
20260504193019 84 155 3.0 9.0 0.00 0.00 0.00 50 1013.4
20260504192517 84 159 2.0 9.0 0.00 0.00 0.00 51 1013.5
20260504192017 83 192 3.0 11.0 0.00 0.00 0.00 51 1013.4
20260504191527 81 173 5.0 11.0 0.00 0.00 0.00 53 1013.6
20260504191016 82 189 3.0 14.0 0.00 0.00 0.00 53 1013.6
20260504190516 83 227 6.0 14.0 0.00 0.00 0.00 51 1013.6
20260504190016 82 222 3.0 7.0 0.00 0.00 0.00 51 1013.7
20260504185515 82 207 1.0 10.0 0.00 0.00 0.00 52 1013.7
20260504185014 81 186 3.0 10.0 0.00 0.00 0.00 54 1013.9
20260504184515 81 196 4.0 11.0 0.00 0.00 0.00 53 1014.0
20260504184015 81 198 1.0 13.0 0.00 0.00 0.00 54 1014.0
20260504183513 81 171 7.0 13.0 0.00 0.00 0.00 52 1014.0
20260504183032 81 153 6.0 12.0 0.00 0.00 0.00 53 1014.0
20260504182512 81 186 7.0 12.0 0.00 0.00 0.00 52 1014.1
20260504182011 82 196 6.0 12.0 0.00 0.00 0.00 51 1014.0
20260504181522 81 155 3.0 14.0 0.00 0.00 0.00 52 1014.2
20260504181011 83 178 6.0 14.0 0.00 0.00 0.00 49 1014.3
20260504180515 83 203 4.0 15.0 0.00 0.00 0.00 49 1014.3
20260504180010 82 181 5.0 15.0 0.00 0.00 0.00 49 1014.3
20260504175508 83 256 2.0 11.0 0.00 0.00 0.00 50 1014.5
20260504175007 82 190 4.0 11.0 0.00 0.00 0.00 51 1014.7
20260504174507 82 183 2.0 10.0 0.00 0.00 0.00 51 1014.7
20260504174006 82 338 3.0 10.0 0.00 0.00 0.00 53 1014.8
20260504173506 81 187 6.0 11.0 0.00 0.00 0.00 54 1014.9
20260504173004 80 161 3.0 13.0 0.00 0.00 0.00 55 1014.8
20260504172504 80 178 5.0 13.0 0.00 0.00 0.00 56 1014.8
20260504172002 80 195 3.0 14.0 0.00 0.00 0.00 55 1015.1
20260504171501 79 169 5.0 10.0 0.00 0.00 0.00 55 1015.2
20260504171003 80 223 2.0 10.0 0.00 0.00 0.00 54 1015.3
20260504170601 80 174 3.0 11.0 0.00 0.00 0.00 53 1015.2
20260504170109 80 147 4.0 15.0 0.00 0.00 0.00 53 1015.3
20260504151049 77 161 5.0 10.0 0.00 0.00 0.00 58 1016.0
20260504150549 77 167 2.0 12.0 0.00 0.00 0.00 59 1016.1
20260504141040 73 156 2.0 6.0 0.00 0.00 0.00 63 1016.1
20260504140539 72 181 3.0 5.0 0.00 0.00 0.00 63 1016.2
20260504130523 64 150 1.0 3.0 0.00 0.00 0.00 75 1016.1
20260504110514 58 180 0.0 0.0 0.00 0.00 0.00 83 1015.7
20260504100509 58 180 0.0 1.0 0.00 0.00 0.00 82 1016.0